TimeCST,TemperatureF,Dew PointF,Humidity,Sea Level PressureIn,VisibilityMPH,Wind Direction,Wind SpeedMPH,Gust SpeedMPH,PrecipitationIn,Events,Conditions,WindDirDegrees,DateUTC
12:56 AM,37.0,36.0,96,30.11,8.0,Calm,Calm,-,0.00,,Clear,0,2012-11-26 06:56:00
1:56 AM,36.0,36.0,100,30.11,9.0,Calm,Calm,-,0.00,,Clear,0,2012-11-26 07:56:00
2:56 AM,36.0,35.1,97,30.11,8.0,Calm,Calm,-,N/A,,Clear,0,2012-11-26 08:56:00
3:56 AM,36.0,35.1,97,30.12,8.0,Calm,Calm,-,N/A,,Clear,0,2012-11-26 09:56:00
4:56 AM,37.0,36.0,96,30.12,10.0,Calm,Calm,-,0.00,Rain,Light Rain,0,2012-11-26 10:56:00
5:56 AM,37.9,33.1,83,30.14,9.0,Calm,Calm,-,N/A,,Clear,0,2012-11-26 11:56:00
6:56 AM,37.0,33.1,86,30.15,10.0,East,3.5,-,N/A,,Scattered Clouds,90,2012-11-26 12:56:00
7:56 AM,48.9,33.1,54,30.17,10.0,East,6.9,-,N/A,,Scattered Clouds,90,2012-11-26 13:56:00
8:56 AM,57.0,32.0,39,30.18,10.0,ESE,6.9,-,N/A,,Scattered Clouds,110,2012-11-26 14:56:00
9:56 AM,62.1,32.0,32,30.17,10.0,East,6.9,-,N/A,,Mostly Cloudy,100,2012-11-26 15:56:00
10:56 AM,64.9,30.9,28,30.16,10.0,SE,6.9,-,N/A,,Mostly Cloudy,140,2012-11-26 16:56:00
11:56 AM,66.0,30.0,26,30.15,10.0,SE,6.9,-,N/A,,Mostly Cloudy,140,2012-11-26 17:56:00
12:56 PM,66.9,28.9,24,30.13,10.0,SE,4.6,-,N/A,,Mostly Cloudy,130,2012-11-26 18:56:00
1:56 PM,66.9,54.0,63,30.12,10.0,ESE,6.9,-,N/A,,Mostly Cloudy,120,2012-11-26 19:56:00
2:56 PM,66.0,51.1,59,30.11,10.0,SE,5.8,-,N/A,,Mostly Cloudy,140,2012-11-26 20:56:00
3:56 PM,66.0,53.1,63,30.11,10.0,SE,4.6,-,N/A,,Mostly Cloudy,130,2012-11-26 21:56:00
4:56 PM,64.0,53.1,67,30.11,10.0,SE,5.8,-,N/A,,Mostly Cloudy,130,2012-11-26 22:56:00
5:56 PM,62.1,53.1,72,30.12,10.0,SE,3.5,-,N/A,,Mostly Cloudy,130,2012-11-26 23:56:00
6:56 PM,61.0,53.1,75,30.13,10.0,Calm,Calm,-,N/A,,Mostly Cloudy,0,2012-11-27 00:56:00
7:56 PM,60.1,53.1,78,30.14,10.0,Calm,Calm,-,N/A,,Overcast,0,2012-11-27 01:56:00
8:56 PM,60.1,53.1,78,30.13,10.0,SE,4.6,-,N/A,,Mostly Cloudy,130,2012-11-27 02:56:00
9:56 PM,59.0,54.0,83,30.12,10.0,ESE,4.6,-,N/A,,Mostly Cloudy,120,2012-11-27 03:56:00
10:56 PM,57.9,54.0,87,30.11,9.0,SSE,3.5,-,N/A,,Mostly Cloudy,150,2012-11-27 04:56:00
11:56 PM,60.1,55.0,83,30.10,10.0,SSE,4.6,-,N/A,,Mostly Cloudy,160,2012-11-27 05:56:00